Вернуться в каталог

FENGYUN 1C DEB

АктивенPO
NORAD 37704·DEBRIS·🇨🇳 China

Запущен May 10, 1999 с Taiyuan Satellite Launch Center

Loading…

Ближайшие Пролёты (ближайшие 24 часа)

TLE

СвежийSource: Space-Track

Эпоха: Sep 12, 2026, 22:18 UTC

1 37704U 99025ELV 26255.92962425  .00001084  00000-0  10182-2 0  9992
2 37704  98.3382  57.8913 0240415 162.2188 350.6398 13.71148927661216

Отслеживайте FENGYUN 1C DEB в реальном времени с AllMySat

Download on the App Store